Location: Strawberry
(45.6646°N, 111.9596°W)
Time: 20:14:20
(UTC+00:00)

Explorer 11/Cluster Stage 4 - Pass Details

Date: 08 October 2022
Orbit: 466 x 1248 km, 28.8° (Epoch: 28 November)

Event Time Altitude Azimuth Distance (km) Brightness Sun altitude
Rises 19:43:18 0° 249° (WSW) 4,177 10.6 37.9°
Reaches altitude 10° 19:47:07 10° 234° (SW) 3,208 10.4 37.7°
Maximum altitude 19:52:36 20° 192° (SSW) 2,471 10.9 37.6°
Drops below altitude 10° 19:57:49 10° 149° (SSE) 3,024 10.3 37.4°
Sets 20:01:18 0° 133° (SE) 3,868 10.4 37.2°
